Location: Arbon
(43.0005°N, 0.7472°E)
Time: 11:52:10
(UTC+00:00)

Cosmos 1869 - Pass Details

Date: 22 April 2026
Orbit: 444 x 468 km, 82.5° (Epoch: 15 May)

Event Time Altitude Azimuth Distance (km) Brightness Sun altitude
Exits shadow 20:06:31 24° 100° (E) 1,020 4.1 -13.9°
Maximum altitude 20:06:53 24° 90° (E) 1,009 4.2 -13.9°
Drops below altitude 10° 20:09:48 10° 35° (NE) 1,636 5.7 -14.4°
Sets 20:12:09 0° 21° (NNE) 2,520 6.9 -14.7°
